This site uses a module created by best online poker sites.

BSB police report ending December 21, 2017

Print
"12/20/2017","01:24","217CR0032635","MISSING PERSON","MISSING PERSON","************","",""
"12/20/2017","03:48","217CR0032636","MEDICAL - EMERGENCY","MEDICAL - EMERGENCY","1125 S MAIN #301","",""
"12/20/2017","03:56","217CR0032637","SUSPICIOUS ACTIVITY","SUSPICIOUS ACTIVITY","GALENA AND MAIN","",""
"12/20/2017","04:23","217CR0032638","DISTURBANCE","DISTURBANCE","12 ONEIL #A","",""
"12/20/2017","04:53","217CR0032639","BUSINESS CHECK","BUSINESS CHECK","1370 HARRISON TOWN PUMP","",""
"12/20/2017","04:56","217CR0032640","ALARM - BURGLARY","ALARM - BURGLARY","************","",""
"12/20/2017","05:39","217CR0032641","MEDICAL - EMERGENCY","MEDICAL - EMERGENCY","1628 B ST","",""
"12/20/2017","05:47","217CR0032642","ATL","ATL","I15 MM 110 NB","",""
"12/20/2017","06:21","217CR0032643","MEDICAL - EMERGENCY","MEDICAL - EMERGENCY","1630 B ST","",""
"12/20/2017","06:39","217CR0032644","SUSPICIOUS ACTIVITY","SUSPICIOUS ACTIVITY","CIVIC CENTER RD AND HARRISON","",""
"12/20/2017","07:57","217CR0032645","CIVIL PAPER SERVICE","CIVIL PAPER SERVICE","155 W QUARTZ","",""
"12/20/2017","07:58","217CR0032646","OPEN BUILDING","OPEN BUILDING","30 E QUARTZ","",""
"12/20/2017","08:05","217CR0032647","ACCIDENT","ACCIDENT","ALABAMA AND SILVER","",""
"12/20/2017","08:29","217CR0032648","DETENTION BUSINESS","DETENTION BUSINESS","************","",""
"12/20/2017","08:33","217CR0032649","ALARM - BURGLARY","ALARM - BURGLARY","************","",""
"12/20/2017","09:14","217CR0032650","ALARM - BURGLARY","ALARM - BURGLARY","************","",""
"12/20/2017","09:40","217CR0032651","MISSING PERSON","MISSING PERSON","************","",""
"12/20/2017","09:42","217CR0032652","INFORMATION ONLY","INFORMATION ONLY","2001 FLORIDA","",""
"12/20/2017","10:04","217CR0032653","THEFT","THEFT, SHOPLIFT","2711 HARRISON","",""
"12/20/2017","10:14","217CR0032654","LED BUSINESS","LED BUSINESS","155 W GRANITE ST","",""
"12/20/2017","10:27","217CR0032655","THEFT","THEFT FROM MOTOR VEHICLE","4825 S WARREN AVE","",""
"12/20/2017","10:38","217CR0032656","MEDICAL - EMERGENCY","MEDICAL - EMERGENCY","300 MT HIGHLAND DR #105","",""
"12/20/2017","11:39","217CR0032657","WELFARE CHECK","WELFARE CHECK","109 S CRYSTAL ST","",""
"12/20/2017","11:47","217CR0032658","CIVIL STANDBY","CIVIL STANDBY","2520 APEX","",""
"12/20/2017","12:12","217CR0032660","CIVIL STANDBY","CIVIL STANDBY","1932 FLORENCE","",""
"12/20/2017","12:19","217CR0032661","DISTURBANCE","DISTURBANCE","3400 HILL #1005","",""
"12/20/2017","12:23","217CR0032662","ACCIDENT","DRIVING W/OUT VALID D/L","UTAH AND ALUMIUM","ARREST(s) MADE",""
"12/20/2017","12:51","217CR0032663","ACCIDENT","ACCIDENT","300 BLK W FRONT","",""
"12/20/2017","12:57","217CR0032665","ACCIDENT","RIGHT-OF-WAY VIOLATION","2900 BLK HARRISON","",""
"12/20/2017","13:50","217CR0032666","ACCIDENT","NO LIABILITY INSURANCE IN EFF.","800 BLK DEWEY BLVD","",""
"12/20/2017","13:51","217CR0032667","ACCIDENT- INJURY(MHP)","ACCIDENT- INJURY(MHP)","I 90 MM 216 W BOUND","",""
"12/20/2017","14:12","217CR0032668","SUSPICIOUS ACTIVITY","SUSPICIOUS ACTIVITY","630 W IRON","",""
"12/20/2017","14:17","217CR0032669","THEFT","THEFT, SHOPLIFT","3700 HARRISON AVE #1","",""
"12/20/2017","14:25","217CR0032670","T/S","T/S @ ","","",""
"12/20/2017","14:26","217CR0032671","T/S","T/S @ HARRISON AND AMHERST","HARRISON AND AMHERST","",""
"12/20/2017","14:33","217CR0032672","DETENTION BUSINESS","DETENTION BUSINESS","************","",""
"12/20/2017","14:39","217CR0032673","WANTED PERSON","CRIMINAL CONTEMPT","STODDEN PARK","ARREST(s) MADE",""
"12/20/2017","14:43","217CR0032675","ACCIDENT","ACCIDENT","HARRISON// WHITE BLD","",""
"12/20/2017","14:44","217CR0032674","FRAUD","FRAUD","3937 HARRISON","",""
"12/20/2017","14:49","217CR0032676","DETENTION BUSINESS","DETENTION BUSINESS","************","",""
"12/20/2017","15:02","217CR0032677","T/S","NO LIABILITY INSURANCE IN EFF.","3701 HARRISON AVE","",""
"12/20/2017","15:08","217CR0032678","THEFT","THEFT, ALL OTHERS","514 N HENRY ST","",""
"12/20/2017","15:12","217CR0032679","LED BUSINESS","LED BUSINESS","155 W GRANITE ST","",""
"12/20/2017","15:18","217CR0032680","MEDICAL - EMERGENCY","MEDICAL - EMERGENCY","1500 FAIRMONT RD","",""
"12/20/2017","15:20","217CR0032681","ASSIST OTHER AGENCY","ASSIST OTHER AGENCY","I90 MM 236 WBND","",""
"12/20/2017","15:22","217CR0032682","ACCIDENT","ACCIDENT","GEORGE AND THORNTON","",""
"12/20/2017","15:32","217CR0032683","THEFT","THEFT","155 W QUARTZ","",""
"12/20/2017","15:34","217CR0032684","TRAFFIC HAZARD","TRAFFIC HAZARD","MAIN AT MERCURY","",""
"12/20/2017","15:38","217CR0032685","THEFT","THEFT, SHOPLIFT","2711 HARRISON AVE","",""
"12/20/2017","15:52","217CR0032686","ACCIDENT","ACCIDENT","I15 MM 125 EB","",""
"12/20/2017","15:53","217CR0032687","ASSIST OTHER AGENCY","ASSIST OTHER AGENCY","I90 MM 257 WBND","",""
"12/20/2017","16:03","217CR0032688","THEFT","THEFT, SHOPLIFT","1370 HARRISON AVE","",""
"12/20/2017","16:29","217CR0032689","THEFT","THEFT, ALL OTHERS","435 S CRYSTAL","",""
"12/20/2017","16:38","217CR0032690","MEDICAL - EMERGENCY","MEDICAL - EMERGENCY","I90 MM126 WBND","",""
"12/20/2017","16:41","217CR0032691","ACCIDENT","ACCIDENT","MONTANA AND PORPHYRY","",""
"12/20/2017","16:44","217CR0032692","ACCIDENT","ACCIDENT","I90 MM 232 WB","",""
"12/20/2017","17:03","217CR0032693","THEFT","THEFT","1200 TEXAS AVE","",""
"12/20/2017","17:06","217CR0032694","ACCIDENT","ACCIDENT","MONTANA ST AND ROWE RD","",""
"12/20/2017","17:08","217CR0032695","TRAFFIC HAZARD","TRAFFIC HAZARD","S ROCKER RD // CHIPMUNK WAY","",""
"12/20/2017","17:16","217CR0032696","ALARM - BURGLARY","ALARM - BURGLARY","************","",""
"12/20/2017","17:24","217CR0032697","ACCIDENT - INJURY","ACCIDENT - INJURY","HARRISON AND HOLMES","",""
"12/20/2017","18:05","217CR0032698","T/S","T/S","GRAND AVE AND STUART ST","",""
"12/20/2017","18:12","217CR0032699","SUSPICIOUS ACTIVITY","SUSPICIOUS ACTIVITY","3540 HARRISON","",""
"12/20/2017","19:12","217CR0032700","THEFT","THEFT, SHOPLIFT","1301 HARRISON AVE","ARREST(s) MADE",""
"12/20/2017","19:22","217CR0032701","WELFARE CHECK","WELFARE CHECK","2551 S MAIN","",""
"12/20/2017","19:39","217CR0032702","BUSINESS CHECK","BUSINESS CHECK","1370 HARRISON AVE","",""
"12/20/2017","19:40","217CR0032703","ATL","ATL","HARRISON AVE EXIT WB OFF RAMP","",""
"12/20/2017","20:01","217CR0032704","SUSPICIOUS ACTIVITY","SUSPICIOUS ACTIVITY","813 S WASHINGTON","",""
"12/20/2017","20:22","217CR0032705","T/S","T/S @ 1340 HARRISON AVE","1340 HARRISON AVE","",""
"12/20/2017","20:28","217CR0032706","T/S","T/S @ SAMPSON AVE AND HARRISON AVE","SAMPSON AVE AND HARRISON AVE","",""
"12/20/2017","20:42","217CR0032707","WANTED PERSON","POSSESSION OF DANGEROUS DRUGS","155 W QUARTZ","ARREST(s) MADE",""
"12/20/2017","20:45","217CR0032708","BUSINESS CHECK","POSSESS DRUG PARAPHERNALIA","531 S MONTANA","ARREST(s) MADE",""
"12/20/2017","20:55","217CR0032709","SUSPICIOUS ACTIVITY","SUSPICIOUS ACTIVITY","2215 N DRIVE","",""
"12/20/2017","20:55","217CR0032710","SUSPICIOUS ACTIVITY","SUSPICIOUS ACTIVITY","2215 N DRIVE","",""
"12/20/2017","21:03","217CR0032711","ALARM - BURGLARY","ALARM - BURGLARY","************","",""
"12/20/2017","21:29","217CR0032712","THEFT","THEFT, SHOPLIFT","310 W FRONT","",""
"12/20/2017","21:43","217CR0032713","ATL","ATL","COPPER MOUNTAIN PARKING LOT","",""
"12/20/2017","22:18","217CR0032714","TRAFFIC","TRAFFIC","200 BLK S WASHINGTON ST","",""
"12/20/2017","22:48","217CR0032715","MEDICAL - EMERGENCY","MEDICAL - EMERGENCY","1809 SAMPSON","",""
"12/20/2017","22:50","217CR0032716","ALL OTHER","ALL OTHER","I15 MM 123 SB","",""
"12/20/2017","22:54","217CR0032717","THEFT","THEFT","2224 LOCUST","",""
"12/20/2017","23:19","217CR0032718","MEDICAL - EMERGENCY","MEDICAL - EMERGENCY","ROCKER TOWN PUMP","",""
"12/20/2017","23:31","217CR0032719","T/S","T/S","DEWEY AND HARRISON","",""
"12/20/2017","23:32","217CR0032720","ALARM - BURGLARY","ALARM - BURGLARY","************","",""
"12/20/2017","23:41","217CR0032721","JUVENILE MISC","JUVENILE MISC","************","",""
"12/20/2017","23:59","217CR0032723","TRAFFIC","TRAFFIC","800 BLK 7TH ST","",""
"12/21/2017","00:13","217CR0032724","T/S","T/S","ALABAMA AND PARK","",""
"12/21/2017","00:41","217CR0032725","ATL","ATL","ELIZABETH WARREN AND HARRISON","",""
"12/21/2017","00:59","217CR0032726","UNWANTED PERSON","UNWANTED PERSON","************","",""
"12/21/2017","01:03","217CR0032727","T/S","T/S","CENTENNIAL AND MONTANA","",""
"12/21/2017","01:17","217CR0032728","SUSPICIOUS ACTIVITY","SUSPICIOUS ACTIVITY","521 COBBAN BAKER AUTO","",""
"12/21/2017","02:35","217CR0032729","SUSPICIOUS ACTIVITY","SUSPICIOUS ACTIVITY","2201 HARRISON/SOCIAL SECURITY","",""
"12/21/2017","02:45","217CR0032730","SUSPICIOUS ACTIVITY","SUSPICIOUS ACTIVITY","1900 BLK HARVARD ST","",""
"12/21/2017","02:46","217CR0032731","SUSPICIOUS ACTIVITY","SUSPICIOUS ACTIVITY","COPPER MOUNTAIN PARK","",""
"12/21/2017","03:03","217CR0032732","INTIMIDATION","INTIMIDATION","408 W MERCURY","",""
"12/21/2017","03:21","217CR0032733","WANTED PERSON","POSSESS DRUG PARAPHERNALIA","207 W PARK ST","ARREST(s) MADE",""
"12/21/2017","04:41","217CR0032734","ATL","ATL","1324 HARRISON AVE BUS DEPOT","",""
"12/21/2017","05:27","217CR0032735","ABANDONED VEHICLE","ABANDONED VEHICLE","BUFFALO AND MAIN","",""
"12/21/2017","05:39","217CR0032736","ALARM - BURGLARY","ALARM - BURGLARY","************","",""
"12/21/2017","06:16","217CR0032737","TRAFFIC","TRAFFIC","CONTINENTAL AND ATCHESON LN","",""
"12/21/2017","06:19","217CR0032738","SUSPICIOUS ACTIVITY","CRIMINAL MISCHIEF","531 S MONTANA","",""
"12/21/2017","07:58","217CR0032739","SUSPICIOUS ACTIVITY","SUSPICIOUS ACTIVITY","CONTINENTAL AND HOWARD","",""
 
Monday the 12th. Affiliate Marketing.
Copyright 2012

©